Regional Weather Roundup
Issued by NWS

Home | Current Version | Previous Version | Graphics & Text | Print | Product List | Glossary On
Versions: 1 2 3 4 5 6 7 8 9 10 11 12 13 14 15 16 17 18 19 20 21 22 23 24 25 26 27 28 29 30 31 32 33 34 35 36 37 38 39 40 41 42 43 44 45 46 47 48 49 50
000
ASUS45 KBOU 021707
RWRCO

WEATHER ROUNDUP FOR COLORADO
NATIONAL WEATHER SERVICE DENVER/BOULDER CO
1100 AM MDT TUE JUN 02 2015

NOTE: "FAIR" INDICATES FEW OR NO CLOUDS BELOW 12000 FEET WITH NO
SIGNIFICANT WEATHER AND/OR OBSTRUCTIONS TO VISIBILITY.

COZ001>005-013-030-031-021800-
...NORTHWEST COLORADO...

CITY           SKY/WX    TMP DP  RH WIND       PRES   REMARKS
CRAIG          SUNNY     74  44  34 NW9       30.06F
HAYDEN         SUNNY     72  37  28 NW7       30.08F
MEEKER         SUNNY     75  28  17 SW13      30.08F
MOUNT WERNER   NOT AVBL
STEAMBOAT SPGS SUNNY     68  36  30 W5        30.10S
WALDEN         MOSUNNY   70  32  24 SW15      30.16S
$$

COZ006>008-011-021800-
...WEST CENTRAL VALLEYS...

CITY           SKY/WX    TMP DP  RH WIND       PRES   REMARKS
GRAND JUNCTION SUNNY     79  25  13 NW9       30.00S
MONTROSE       SUNNY     79  25  13 W13       30.09F
EAGLE          SUNNY     79  37  22 CALM      30.12F
RIFLE          SUNNY     74  37  26 NW6       30.04F
DELTA          SUNNY     81  24  12 S3        30.06F
NUCLA          SUNNY     77  19  11 SW10G25   30.14F
$$

COZ017>023-064>068-021800-
...SOUTHWEST COLORADO...

CITY           SKY/WX    TMP DP  RH WIND       PRES   REMARKS
DURANGO        SUNNY     71  34  25 VRB3      30.21F
CORTEZ         SUNNY     77  25  14 SW13      30.15S
PAGOSA SPRINGS SUNNY     66  26  21 S6        30.28S
TELLURIDE      SUNNY     65  18  16 SE5       30.32F
WOLF CREEK PAS NOT AVBL
$$

COZ009-010-012-014-032>034-037-058>063-021800-
...CENTRAL COLORADO...

CITY           SKY/WX    TMP DP  RH WIND       PRES   REMARKS
ASPEN          SUNNY     71  22  15 SW16G22   30.18S
BUENA VISTA    SUNNY     67  37  33 E6        30.21F
COPPER MTN     SUNNY     52  14  22 W18G26    30.46S
BERTHOUD PASS  FAIR      43  36  75 W28       30.47F
COTTONWOOD PAS NOT AVBL
GUNNISON       SUNNY     63  37  39 SE3       30.25F
KREMMLING      SUNNY     72  27  18 SW15      30.16F
LEADVILLE      SUNNY     60  14  16 SW15G26   30.31F
MONARCH PASS   SUNNY     46  19  34 W25G31    30.57S
SALIDA         SUNNY     72  36  26 S16       30.25F
SUNLIGHT       SUNNY     55  27  33 CALM      30.39F
WILKERSON PASS SUNNY     57  23  26 SW8G22    30.45S
$$

COZ069>075-021800-
...SAN LUIS VALLEY/SANGRE DE CRISTO MOUNTAINS...

CITY           SKY/WX    TMP DP  RH WIND       PRES   REMARKS
ALAMOSA        SUNNY     73  24  16 S15       30.21F
LA VETA PASS   SUNNY    N/A N/A N/A MISG      30.38S
SAGUACHE       SUNNY     63  41  45 S8        30.25F
$$

COZ035-036-038>040-021800-
...NORTHERN COLORADO FRONT RANGE...

CITY           SKY/WX    TMP DP  RH WIND       PRES   REMARKS
DENVER INTL AP MOSUNNY   77  53  43 SW6       29.98F
DMNS CITY PARK   N/A     82  41  23 SW9       29.96F
AURORA         MOSUNNY   79  44  28 W10       30.00F
FRONT RANGE AP MOSUNNY   77  54  44 W5        29.99F
ERIE MUNI ARPT SUNNY     77  52  41 CALM      29.96F
BOULDER MUN AP SUNNY     73  54  49 NE6       29.96F
CENTENNIAL     MOSUNNY   79  37  22 SW15      30.01F
BROOMFIELD     NOT AVBL
FORT COLLINS   SUNNY     70  55  60 SE6       29.96F
LONGMONT       SUNNY     79  55  42 E3        29.97F
$$

COZ041-046-047-076>085-087-088-021800-
...PIKES PEAK/PALMER DIVIDE AND SOUTHERN FOOTHILLS...

CITY           SKY/WX    TMP DP  RH WIND       PRES   REMARKS
COLO. SPRINGS  PTSUNNY   80  33  18 SE8       30.06F
A. F. ACADEMY  MOSUNNY   78  26  15 W15G24    30.06F
ELLICOTT       MOSUNNY  N/A N/A N/A SW7       30.05S
FALCON         MOSUNNY   78  24  13 NW13G20   30.11F
FORT CARSON    SUNNY     81  39  22 SW16      30.02F
LIMON          MOSUNNY   75  56  51 S7        30.00F
MONUMENT HILL  MOSUNNY   75  28  17 SE16      30.12S
TRINIDAD       MOSUNNY   82  41  23 CALM      30.05F
$$

COZ042>045-048>051-090-091-021800-
...NORTHEAST COLORADO...

CITY           SKY/WX    TMP DP  RH WIND       PRES   REMARKS
GREELEY ARPT   MOSUNNY   72  57  60 W3        29.95F
AKRON          SUNNY     77  52  41 W14       29.94S
BURLINGTON     MOSUNNY   74  61  63 S10       29.95R
WRAY           SUNNY     78  63  60 S10G18    29.90F
STERLING       SUNNY     73  61  64 SW7       29.90F
HOLYOKE        NOT AVBL
FORT MORGAN    SUNNY     72  55  55 W5        29.94F
$$

COZ086-089-092>099-021800-
...SOUTHEAST COLORADO...

CITY           SKY/WX    TMP DP  RH WIND       PRES   REMARKS
PUEBLO         MOSUNNY   81  50  33 CALM      29.96F
LA JUNTA       MOSUNNY   78  57  48 SW5       29.95F
LAMAR          SUNNY     79  58  48 CALM      29.91F
SPRINGFIELD      N/A     83  51  33 VRB3      29.96S
$$


USA.gov is the U.S. government's official web portal to all federal, state and local government web resources and services.